Weather in Shordakovo

Russia / The Kabardino-Balkar Republic     43°52′45″N   43°06′17″E
temp.,
°C
wind,
m/s
gust,
m/s
humid.,
%
clouds,
%
prec.,
mm/h
press.,
hPa
HPBL,
m
5 december, sun
sun500:00+6ssw22415 0.0 101210
03:00+6sw2236100 0.0 101110
06:00+7wsw2234100 0.0 101010
09:00+8wnw2237100 0.0 101224
12:00+9n2238100 0.0 1012221
15:00+9sse1145100 0.0 101228
18:00+7w1148100 0.0 101410
21:00+7wsw225035 0.0 101610
6 december, mon
mon600:00+5wsw11565 0.0 101710
03:00+5s115739 0.0 101810
06:00+4sse22585 0.0 101911
09:00+5se22551 0.0 102037
12:00+10e22445 0.0 1019298
15:00+9e224846 0.0 1020267
18:00+6se22605 0.0 102214
21:00+6sse22602 0.0 102214
7 december, tue
tue700:00+5sse22600 0.0 102114
03:00+5se22580 0.0 102211
06:00+5sse22562 0.0 102216
09:00+6se33510 0.0 102162
12:00+11ese47420 0.0 1018356
15:00+9ese47495 0.0 1017348
18:00+5se47680 0.0 1017152
21:00+4se35720 0.0 101583
8 december, wed
wed800:00+3ese34760 0.0 101476
03:00+2ese337924 0.0 101364
06:00+2ese227335 0.0 101244
09:00+4ese116546 0.0 101256
12:00+8ne115099 0.0 1009119
15:00+9nw11482 0.0 100891
18:00+6w22535 0.0 101010
21:00+7w2244100 0.0 101014
9 december, thu
thu900:00+8wsw3339100 0.0 101026
03:00+6w4455100 0.0 101354
06:00+6wsw2273100 0.0 101513
09:00+7ssw1171100 0.1 101612
12:00+7sw2485100 1.8 1017180
15:00+9w2468100 1.9 1017339
18:00+7wnw128024 0.0 101912
21:00+6nnw1184100 0.0 102116